GW5607 Weather Reports


time (UTC)temp
C
wind
direction
speed
KPH
gust
KPH
rain 1hr
cm
rain 24hr
cm
rain mn
cm
humidity
%
barometer
mb
20260504160250 25 201 3.2 4.8 0.00 0.00 0.00 45 1011.3
20260504150716 23 237 4.8 6.4 0.00 0.00 0.00 51 1011.9
20260504150213 22 183 0.0 1.6 0.00 0.00 0.00 54 1011.8
20260504141142 20 200 1.6 3.2 0.00 0.00 0.00 60 1012.2
20260504140639 20 199 3.2 3.2 0.00 0.00 0.00 63 1012.0
20260504140134 20 176 0.0 0.0 0.00 0.00 0.00 66 1011.8
20260504130602 17 184 1.6 1.6 0.00 0.00 0.00 69 1012.3
20260504110450 15 173 0.0 0.0 0.00 0.00 0.00 68 1011.4
20260504100412 16 180 0.0 0.0 0.00 0.00 0.00 63 1011.3
20260504081805 15 170 0.0 1.6 0.00 0.00 0.00 61 1011.6
20260504081302 15 183 0.0 0.0 0.00 0.00 0.00 60 1011.5
20260504080758 15 183 1.6 1.6 0.00 0.00 0.00 60 1011.9
20260504080255 15 199 0.0 1.6 0.00 0.00 0.00 60 1011.5
20260504070222 15 177 0.0 1.6 0.00 0.00 0.00 59 1012.2
20260504060143 16 172 0.0 0.0 0.00 0.00 0.00 57 1013.0
20260504050611 16 172 0.0 0.0 0.00 0.00 0.00 55 1013.1
20260504050108 16 175 0.0 1.6 0.00 0.00 0.00 54 1013.1
20260504045605 16 180 0.0 0.0 0.00 0.00 0.00 54 1013.1
20260504045100 16 182 0.0 1.6 0.00 0.00 0.00 54 1013.3
20260504044558 16 173 0.0 1.6 0.00 0.00 0.00 54 1013.1
20260504044054 16 173 0.0 1.6 0.00 0.00 0.00 54 1013.4
20260504043552 16 179 0.0 0.0 0.00 0.00 0.00 53 1013.1
20260504043049 16 170 0.0 0.0 0.00 0.00 0.00 53 1013.2
20260504042546 16 172 0.0 0.0 0.00 0.00 0.00 53 1013.3
20260504042043 16 169 1.6 1.6 0.00 0.00 0.00 53 1013.2
20260504041539 16 180 0.0 0.0 0.00 0.00 0.00 53 1013.5
20260504041035 16 174 0.0 1.6 0.00 0.00 0.00 52 1013.5
20260504040533 16 173 0.0 0.0 0.00 0.00 0.00 52 1013.4
20260504040029 16 170 0.0 0.0 0.00 0.00 0.00 52 1013.4
20260504035526 16 174 0.0 0.0 0.00 0.00 0.00 51 1013.5
20260504035022 16 172 0.0 0.0 0.00 0.00 0.00 51 1013.5
20260504034520 16 168 1.6 1.6 0.00 0.00 0.00 50 1013.6
20260504034017 16 170 0.0 0.0 0.00 0.00 0.00 51 1013.6
20260504033515 16 177 1.6 3.2 0.00 0.00 0.00 51 1013.8
20260504033012 16 184 0.0 1.6 0.00 0.00 0.00 51 1013.6
20260504032509 16 180 0.0 0.0 0.00 0.00 0.00 51 1013.5
20260504032005 16 185 0.0 1.6 0.00 0.00 0.00 50 1013.8
20260504031502 16 195 0.0 1.6 0.00 0.00 0.00 50 1013.8
20260504030959 16 183 0.0 0.0 0.00 0.00 0.00 51 1013.6
20260504030456 16 179 0.0 1.6 0.00 0.00 0.00 50 1013.8
20260504025952 16 202 1.6 1.6 0.00 0.00 0.00 50 1013.8
20260504025449 16 177 0.0 0.0 0.00 0.00 0.00 51 1013.7
20260504024946 16 179 0.0 0.0 0.00 0.00 0.00 51 1013.6
20260504024443 16 169 0.0 0.0 0.00 0.00 0.00 51 1013.7
20260504023940 16 175 0.0 0.0 0.00 0.00 0.00 51 1013.8
20260504023436 16 182 0.0 1.6 0.00 0.00 0.00 51 1013.7
20260504022932 16 171 0.0 0.0 0.00 0.00 0.00 51 1013.8
20260504022429 16 178 0.0 0.0 0.00 0.00 0.00 51 1013.7
20260504021925 16 176 0.0 0.0 0.00 0.00 0.00 51 1013.9
20260504021422 16 171 0.0 0.0 0.00 0.00 0.00 50 1013.6
20260504020920 16 173 0.0 0.0 0.00 0.00 0.00 50 1013.6
20260504020416 16 175 0.0 0.0 0.00 0.00 0.00 49 1013.7
20260504015913 16 175 0.0 0.0 0.00 0.00 0.00 48 1013.6
20260504015409 16 175 0.0 0.0 0.00 0.00 0.00 48 1013.7
20260504014905 16 173 0.0 0.0 0.00 0.00 0.00 48 1013.6
20260504014401 16 172 0.0 0.0 0.00 0.00 0.00 47 1013.7
20260504013858 17 171 0.0 0.0 0.00 0.00 0.00 47 1013.7
20260504013356 17 174 0.0 0.0 0.00 0.00 0.00 47 1013.5
20260504012853 17 176 0.0 0.0 0.00 0.00 0.00 46 1013.5
20260504012351 17 175 0.0 0.0 0.00 0.00 0.00 46 1013.6
20260504011848 17 176 0.0 0.0 0.00 0.00 0.00 45 1013.3
20260504011344 17 177 0.0 0.0 0.00 0.00 0.00 45 1013.4
20260504010840 17 176 0.0 0.0 0.00 0.00 0.00 45 1013.4
20260504010336 17 178 0.0 0.0 0.00 0.00 0.00 44 1013.4
20260504005833 18 174 0.0 0.0 0.00 0.00 0.00 44 1013.5
20260504005330 18 173 0.0 0.0 0.00 0.00 0.00 44 1013.4
20260504004827 18 173 0.0 0.0 0.00 0.00 0.00 44 1013.3
20260504004325 18 166 0.0 0.0 0.00 0.00 0.00 42 1013.3
20260504003821 18 181 0.0 0.0 0.00 0.00 0.00 41 1013.5
20260504003318 19 174 0.0 0.0 0.00 0.00 0.00 41 1013.4
20260504002815 19 189 1.6 1.6 0.00 0.00 0.00 41 1013.4
20260504002312 19 174 0.0 0.0 0.00 0.00 0.00 41 1013.6
20260504001809 20 181 1.6 1.6 0.00 0.00 0.00 40 1013.5
20260504001306 20 183 0.0 1.6 0.00 0.00 0.00 40 1013.7
20260504000803 20 168 0.0 0.0 0.00 0.00 0.00 39 1013.5
20260504000300 20 185 1.6 1.6 0.00 0.00 0.00 38 1013.6
20260503235758 20 178 0.0 1.6 0.00 0.00 0.00 39 1013.7
20260503235255 20 182 1.6 3.2 0.00 0.00 0.00 38 1013.7
20260503234753 20 176 0.0 0.0 0.00 0.00 0.00 38 1013.8
20260503234250 20 185 0.0 1.6 0.00 0.00 0.00 38 1013.7
20260503233747 20 170 0.0 0.0 0.00 0.00 0.00 38 1013.9
20260503233243 21 175 1.6 1.6 0.00 0.00 0.00 38 1013.9
20260503232740 21 172 0.0 0.0 0.00 0.00 0.00 37 1014.0
20260503232237 21 171 3.2 3.2 0.00 0.00 0.00 37 1014.2
20260503231736 21 171 1.6 3.2 0.00 0.00 0.00 35 1014.1
20260503231232 21 184 1.6 3.2 0.00 0.00 0.00 37 1014.3
20260503230728 21 174 0.0 0.0 0.00 0.00 0.00 36 1014.2
20260503230226 21 193 0.0 1.6 0.00 0.00 0.00 35 1014.2
20260503225723 21 161 1.6 1.6 0.00 0.00 0.00 36 1014.4
20260503225223 21 208 1.6 3.2 0.00 0.00 0.00 37 1014.4
20260503224720 21 209 3.2 4.8 0.00 0.00 0.00 36 1014.4
20260503224218 22 164 1.6 1.6 0.00 0.00 0.00 35 1014.6
20260503223715 22 141 1.6 3.2 0.00 0.00 0.00 35 1014.7
20260503223213 22 186 0.0 1.6 0.00 0.00 0.00 35 1014.6
20260503222709 22 158 0.0 1.6 0.00 0.00 0.00 35 1014.8
20260503222207 22 192 3.2 3.2 0.00 0.00 0.00 33 1014.6
20260503221705 22 198 3.2 3.2 0.00 0.00 0.00 34 1014.6
20260503221202 22 183 1.6 3.2 0.00 0.00 0.00 34 1014.8
20260503220659 22 177 1.6 1.6 0.00 0.00 0.00 34 1014.8
20260503220155 22 171 1.6 1.6 0.00 0.00 0.00 33 1014.8
20260503215652 22 174 1.6 1.6 0.00 0.00 0.00 34 1014.8
20260503215149 22 190 1.6 1.6 0.00 0.00 0.00 33 1014.9
20260503214648 22 183 1.6 1.6 0.00 0.00 0.00 35 1014.8
20260503214144 22 189 1.6 3.2 0.00 0.00 0.00 33 1015.1
20260503213643 22 174 1.6 1.6 0.00 0.00 0.00 34 1015.2
20260503213139 22 192 6.4 6.4 0.00 0.00 0.00 31 1015.3
20260503212637 23 221 6.4 6.4 0.00 0.00 0.00 30 1015.4
20260503212134 23 169 3.2 3.2 0.00 0.00 0.00 31 1015.5
20260503211632 23 174 1.6 3.2 0.00 0.00 0.00 32 1015.4
20260503211127 23 173 1.6 1.6 0.00 0.00 0.00 34 1015.5
20260503210624 23 210 3.2 3.2 0.00 0.00 0.00 33 1015.8
20260503210120 23 204 1.6 3.2 0.00 0.00 0.00 32 1015.8
20260503205616 22 188 0.0 1.6 0.00 0.00 0.00 34 1015.8
20260503205112 22 203 8.0 11.3 0.00 0.00 0.00 32 1016.0
20260503204609 22 150 3.2 4.8 0.00 0.00 0.00 33 1016.1
20260503204107 23 212 6.4 11.3 0.00 0.00 0.00 31 1016.3
20260503203604 22 188 1.6 3.2 0.00 0.00 0.00 35 1016.2
20260503203101 22 209 6.4 6.4 0.00 0.00 0.00 32 1016.6
20260503202558 22 182 1.6 1.6 0.00 0.00 0.00 34 1016.7
20260503202056 22 220 8.0 11.3 0.00 0.00 0.00 32 1016.7
20260503201554 22 143 0.0 1.6 0.00 0.00 0.00 34 1016.7
20260503201051 22 168 0.0 1.6 0.00 0.00 0.00 33 1016.7
20260503200547 23 156 3.2 4.8 0.00 0.00 0.00 33 1017.1
20260503200044 22 235 6.4 6.4 0.00 0.00 0.00 33 1017.0
20260503195541 22 176 1.6 1.6 0.00 0.00 0.00 35 1017.3
20260503195038 22 178 1.6 3.2 0.00 0.00 0.00 36 1017.3
20260503194535 22 180 1.6 3.2 0.00 0.00 0.00 34 1017.6
20260503194035 22 195 1.6 3.2 0.00 0.00 0.00 36 1017.8
20260503193532 21 200 3.2 3.2 0.00 0.00 0.00 37 1018.0
20260503193027 21 198 4.8 4.8 0.00 0.00 0.00 35 1018.1
20260503192523 22 202 3.2 4.8 0.00 0.00 0.00 34 1018.1
20260503192020 22 212 3.2 3.2 0.00 0.00 0.00 35 1018.4
20260503191516 22 225 3.2 4.8 0.00 0.00 0.00 34 1018.5
20260503191013 22 204 3.2 3.2 0.00 0.00 0.00 36 1018.4
20260503190510 21 218 6.4 6.4 0.00 0.00 0.00 35 1018.4
20260503190008 21 174 3.2 4.8 0.00 0.00 0.00 35 1018.6
20260503185504 21 187 1.6 3.2 0.00 0.00 0.00 33 1018.3
20260503185003 21 196 3.2 3.2 0.00 0.00 0.00 33 1018.7
20260503184500 21 211 1.6 3.2 0.00 0.00 0.00 34 1018.8
20260503183956 21 197 4.8 4.8 0.00 0.00 0.00 35 1018.7
20260503183453 21 213 4.8 4.8 0.00 0.00 0.00 35 1018.8
20260503182950 21 218 4.8 4.8 0.00 0.00 0.00 37 1019.0
20260503182449 20 221 3.2 3.2 0.00 0.00 0.00 37 1019.0
20260503181946 20 220 3.2 4.8 0.00 0.00 0.00 37 1019.1
20260503181443 21 225 3.2 6.4 0.00 0.00 0.00 36 1019.3
20260503180939 21 173 1.6 3.2 0.00 0.00 0.00 37 1019.3
20260503180437 20 208 3.2 4.8 0.00 0.00 0.00 41 1019.4
20260503175934 20 184 1.6 3.2 0.00 0.00 0.00 41 1019.3
20260503175432 20 196 1.6 1.6 0.00 0.00 0.00 37 1019.5
20260503174927 20 173 3.2 3.2 0.00 0.00 0.00 39 1019.6
20260503174426 20 165 3.2 3.2 0.00 0.00 0.00 39 1020.0
20260503173926 20 179 1.6 1.6 0.00 0.00 0.00 40 1019.9
20260503173422 20 217 3.2 3.2 0.00 0.00 0.00 38 1020.0
20260503172919 20 71 1.6 3.2 0.00 0.00 0.00 38 1019.8
20260503172417 20 134 8.0 11.3 0.00 0.00 0.00 36 1019.9
20260503171913 20 171 3.2 3.2 0.00 0.00 0.00 39 1019.9
20260503171410 19 209 4.8 4.8 0.00 0.00 0.00 38 1020.1
20260503170907 20 204 6.4 6.4 0.00 0.00 0.00 39 1020.4
20260503170403 20 157 1.6 3.2 0.00 0.00 0.00 38 1020.1